Location: Sternwarte Stuttgart
(48.7670°N, 9.1830°E)
Time: 22:35:47
(UTC+01:00)

Cosmos 1238 Rocket - Pass Details

Date: 24 January 2019
Orbit: 375 x 1037 km, 82.9° (Epoch: 17 February)

Event Time Altitude Azimuth Distance (km) Brightness Sun altitude
Exits shadow 05:11:32 30° 49° (NE) 977 4.4 -28.1°
Maximum altitude 05:12:23 33° 77° (ENE) 926 4.4 -27.9°
Drops below altitude 10° 05:16:20 10° 142° (SE) 1,993 6.1 -27.3°
Sets 05:18:58 0° 152° (SSE) 3,025 6.9 -26.8°
